sat.trackr.live / text

‹ back to catalog

BRO-15

NORAD 60553 · 2024-149CP

PAYLOAD ACTIVE UNKNOWN

§ Identity

Operator
Country
FR
Launch date
2024-08-16
Launch site
AFWTR
Launch vehicle
Mass (kg)
RCS (m²)

External: N2YO · Heavens-Above · Gunter

§ Orbital elements

Epoch: 2026-05-25T04:05:40.653024Z

Period
96.25 min
Inclination
97.6809°
Eccentricity
0.0008690
Mean motion
14.96085346 rev/d
Perigee alt
573.0 km
Apogee alt
585.1 km
Semi-major
6,957.1 km
B*
8.3838e-5
RAAN
220.9851°
Arg perigee
154.1509°
Mean anomaly
206.0148°
Rev number
9,656

§ Raw data

BRO-151 60553U 24149CP  26145.17060941  .00000886  00000+0  83838-4 0  99902 60553  97.6809 220.9851 0008690 154.1509 206.0148 14.96085346 96568

JSON: /api/v1/satellites/60553 · /tle

For live sub-satellite position, see the globe view (requires WebGL).

§ Visibility from observer

Set your observer location to see the next 7 days of passes ≥ 10°. The values pass through the URL so the page stays shareable.

No JS? Fill the form by hand. The geolocation button needs JavaScript.

§ Radio — SatNOGS DB

ModeDescriptionDownlinkUplink
BPSK Mode S - Transmitter 2.261 GHz
FSK AX.100 Mode 5 Mode U - FSK9k6 - Transmitter 401.820 MHz
FSK AX.100 Mode 5 Mode U - FSK4k8 - TLM (inactive) 401.735 MHz
FSK AX.100 Mode 5 Mode U - FSK9k6 - TLM (inactive) 401.735 MHz

4 transmitters · refreshed weekly from db.satnogs.org